Language: 


Des rapports , des résumés tant et plus, au choix de chacun....


Données Historiques de Météogheer
Journalier Rapport pour Nil La, TWC- Unitée:  Métrique    Impériale   Les deux

Warning: A non-numeric value encountered in /datas/vol1/w4a123858/var/www/legheer.be/meteo3/wu/WU-History.php on line 1400

Warning: mktime() expects parameter 4 to be integer, string given in /datas/vol1/w4a123858/var/www/legheer.be/meteo3/wu/WU-History.php on line 1401

Warning: A non-numeric value encountered in /datas/vol1/w4a123858/var/www/legheer.be/meteo3/wu/WU-History.php on line 1400

Warning: mktime() expects parameter 4 to be integer, string given in /datas/vol1/w4a123858/var/www/legheer.be/meteo3/wu/WU-History.php on line 1401
Suivant Jour »
Journalier Hebdomadaire Mensuel Annuel Sur mesure
  Max: Min: Moyenne:
Température: 24.6 °C 6.1 °C 14.4 °C
Point de rosée: 12.0 °C 5.0 °C 8.7 °C
Humidité: 95% 37% 72%
Vent: 16.9km/h 0.0km/h 6.3km/h
Rafales: 24.5km/h - -
Vent- - SSE
Pression: 1022.9 hPa 1016.8 hPa -
Pluie: 0.0 mm    
Historical Graphs
 
 
Données tabulaires pour Nil La, TWC-
Heure Température Point de rosée Pression Vent Vent Rafales Humidité Pluie Taux (Horaire) Conditions
00:00 9.8 °C 7.0 °C 1021.9 hPa Calm   6.9 km/h 82% 0.0 mm
00:09 9.4 °C 7.0 °C 1021.9 hPa Calm   6.9 km/h 82% 0.0 mm
00:15 9.3 °C 7.0 °C 1021.9 hPa North 4.0 km/h 6.9 km/h 82% 0.0 mm
00:20 9.2 °C 7.0 °C 1021.9 hPa North 5.5 km/h 6.9 km/h 82% 0.0 mm
00:29 8.9 °C 6.0 °C 1021.9 hPa North 3.2 km/h 6.1 km/h 83% 0.0 mm
00:34 8.7 °C 6.0 °C 1021.9 hPa North 3.2 km/h 6.1 km/h 83% 0.0 mm
00:40 8.6 °C 6.0 °C 1021.9 hPa NNW 5.0 km/h 5.0 km/h 83% 0.0 mm
00:49 8.3 °C 6.0 °C 1021.9 hPa Calm   7.9 km/h 83% 0.0 mm
00:54 8.2 °C 6.0 °C 1021.9 hPa NNW 4.0 km/h 7.9 km/h 84% 0.0 mm
01:00 8.1 °C 6.0 °C 1021.9 hPa Calm   6.1 km/h 83% 0.0 mm
01:09 7.9 °C 6.0 °C 1021.9 hPa Calm   5.5 km/h 84% 0.0 mm
01:14 7.7 °C 5.0 °C 1021.9 hPa Calm   1.8 km/h 84% 0.0 mm
01:20 7.6 °C 5.0 °C 1021.9 hPa Calm   1.4 km/h 84% 0.0 mm
01:29 7.2 °C 5.0 °C 1021.9 hPa Calm     84% 0.0 mm
01:35 7.1 °C 5.0 °C 1021.9 hPa Calm     84% 0.0 mm
01:40 7.1 °C 5.0 °C 1021.9 hPa Calm     84% 0.0 mm
01:49 6.9 °C 5.0 °C 1021.9 hPa North 4.3 km/h 6.4 km/h 86% 0.0 mm
01:54 7.0 °C 5.0 °C 1021.9 hPa Calm   6.4 km/h 86% 0.0 mm
02:00 7.0 °C 5.0 °C 1021.9 hPa Calm   6.1 km/h 87% 0.0 mm
02:10 7.0 °C 5.0 °C 1021.9 hPa Calm   5.5 km/h 87% 0.0 mm
02:20 6.9 °C 5.0 °C 1021.9 hPa Calm   3.2 km/h 87% 0.0 mm
02:29 6.8 °C 5.0 °C 1021.9 hPa Calm   3.2 km/h 87% 0.0 mm
02:34 7.0 °C 5.0 °C 1021.9 hPa North 9.3 km/h 9.3 km/h 87% 0.0 mm
02:40 7.0 °C 5.0 °C 1021.9 hPa Calm   9.3 km/h 88% 0.0 mm
02:49 6.9 °C 6.0 °C 1021.9 hPa Calm   5.8 km/h 89% 0.0 mm
02:55 6.8 °C 5.0 °C 1021.9 hPa Calm   5.8 km/h 88% 0.0 mm
03:00 6.7 °C 5.0 °C 1021.9 hPa Calm   5.8 km/h 88% 0.0 mm
03:09 6.6 °C 5.0 °C 1021.9 hPa Calm   4.0 km/h 88% 0.0 mm
03:14 6.5 °C 5.0 °C 1021.9 hPa Calm   3.5 km/h 88% 0.0 mm
03:20 6.5 °C 5.0 °C 1021.9 hPa Calm   4.0 km/h 88% 0.0 mm
03:29 6.5 °C 5.0 °C 1021.9 hPa Calm   3.5 km/h 89% 0.0 mm
03:35 6.4 °C 5.0 °C 1021.9 hPa Calm   3.5 km/h 89% 0.0 mm
03:40 6.4 °C 5.0 °C 1021.9 hPa Calm   5.8 km/h 89% 0.0 mm
03:49 6.3 °C 5.0 °C 1021.9 hPa Calm   6.9 km/h 89% 0.0 mm
03:54 6.2 °C 5.0 °C 1021.9 hPa Calm   4.7 km/h 89% 0.0 mm
04:00 6.1 °C 5.0 °C 1021.9 hPa NNW 2.6 km/h 2.6 km/h 89% 0.0 mm
04:09 6.1 °C 5.0 °C 1021.9 hPa North 1.8 km/h 5.5 km/h 89% 0.0 mm
04:14 6.2 °C 5.0 °C 1021.9 hPa Calm   4.7 km/h 89% 0.0 mm
04:20 6.2 °C 5.0 °C 1021.9 hPa North 4.3 km/h 5.8 km/h 89% 0.0 mm
04:29 6.2 °C 5.0 °C 1021.9 hPa North 6.1 km/h 6.1 km/h 90% 0.0 mm
04:34 6.2 °C 5.0 °C 1021.9 hPa NNW 6.9 km/h 6.9 km/h 90% 0.0 mm
04:40 6.4 °C 5.0 °C 1020.9 hPa NNE 5.5 km/h 8.7 km/h 91% 0.0 mm
04:49 6.7 °C 6.0 °C 1020.9 hPa North 6.4 km/h 9.7 km/h 92% 0.0 mm
04:55 6.9 °C 6.0 °C 1021.9 hPa NNE 6.9 km/h 11.9 km/h 94% 0.0 mm
05:00 7.1 °C 6.0 °C 1021.9 hPa North 9.0 km/h 11.9 km/h 92% 0.0 mm
05:09 7.3 °C 6.0 °C 1020.9 hPa NNE 9.3 km/h 13.0 km/h 94% 0.0 mm
05:14 7.4 °C 6.0 °C 1020.9 hPa North 8.7 km/h 13.0 km/h 94% 0.0 mm
05:20 7.5 °C 7.0 °C 1020.9 hPa NNE 4.3 km/h 11.9 km/h 94% 0.0 mm
05:29 7.7 °C 7.0 °C 1020.9 hPa NNE 10.5 km/h 12.2 km/h 94% 0.0 mm
05:34 7.7 °C 7.0 °C 1020.9 hPa North 4.3 km/h 13.7 km/h 94% 0.0 mm
05:40 7.8 °C 7.0 °C 1020.9 hPa NNE 7.9 km/h 13.7 km/h 94% 0.0 mm
05:50 7.9 °C 7.0 °C 1020.9 hPa NNE 6.1 km/h 12.6 km/h 94% 0.0 mm
05:59 8.0 °C 7.0 °C 1021.9 hPa NNE 6.9 km/h 14.0 km/h 94% 0.0 mm
06:04 8.0 °C 7.0 °C 1021.9 hPa NNE 5.8 km/h 10.5 km/h 94% 0.0 mm
06:10 8.1 °C 7.0 °C 1020.9 hPa NNE 6.9 km/h 10.5 km/h 94% 0.0 mm
06:19 8.2 °C 7.0 °C 1020.9 hPa NE 6.9 km/h 10.5 km/h 94% 0.0 mm
06:24 8.2 °C 8.0 °C 1020.9 hPa NE 11.6 km/h 12.2 km/h 95% 0.0 mm
06:30 8.3 °C 8.0 °C 1020.9 hPa NNE 7.9 km/h 12.2 km/h 95% 0.0 mm
06:39 8.4 °C 8.0 °C 1020.9 hPa NE 4.7 km/h 10.1 km/h 95% 0.0 mm
06:44 8.4 °C 8.0 °C 1020.9 hPa NE 3.5 km/h 9.3 km/h 95% 0.0 mm
06:50 8.4 °C 8.0 °C 1020.9 hPa ENE 1.4 km/h 8.7 km/h 94% 0.0 mm
06:59 8.3 °C 8.0 °C 1020.9 hPa NNE 9.0 km/h 10.5 km/h 94% 0.0 mm
07:04 8.3 °C 8.0 °C 1020.9 hPa NNE 9.7 km/h 10.5 km/h 94% 0.0 mm
07:10 8.2 °C 7.0 °C 1021.9 hPa North 6.9 km/h 10.1 km/h 94% 0.0 mm
07:19 8.3 °C 8.0 °C 1021.9 hPa North 7.9 km/h 10.5 km/h 94% 0.0 mm
07:24 8.3 °C 8.0 °C 1021.9 hPa Calm   10.5 km/h 94% 0.0 mm
07:30 8.3 °C 8.0 °C 1021.9 hPa NNE 6.9 km/h 9.3 km/h 94% 0.0 mm
07:40 8.3 °C 8.0 °C 1021.9 hPa NE 6.1 km/h 11.6 km/h 94% 0.0 mm
07:49 8.4 °C 8.0 °C 1021.9 hPa NE 7.9 km/h 11.9 km/h 95% 0.0 mm
07:54 8.4 °C 8.0 °C 1021.9 hPa NE 9.7 km/h 11.9 km/h 95% 0.0 mm
08:00 8.5 °C 8.0 °C 1021.9 hPa NNE 10.5 km/h 11.9 km/h 95% 0.0 mm
08:09 8.6 °C 8.0 °C 1021.9 hPa NNE 9.0 km/h 13.0 km/h 95% 0.0 mm
08:20 8.7 °C 8.0 °C 1021.9 hPa NE 9.0 km/h 12.2 km/h 95% 0.0 mm
08:29 8.9 °C 9.0 °C 1021.9 hPa ENE 6.4 km/h 12.6 km/h 95% 0.0 mm
08:34 9.0 °C 9.0 °C 1021.9 hPa ENE 9.0 km/h 12.6 km/h 95% 0.0 mm
08:40 9.2 °C 9.0 °C 1021.9 hPa NE 5.5 km/h 10.1 km/h 95% 0.0 mm
08:49 9.4 °C 9.0 °C 1021.9 hPa NNE 8.7 km/h 14.0 km/h 95% 0.0 mm
08:54 9.5 °C 9.0 °C 1021.9 hPa NE 9.7 km/h 14.0 km/h 95% 0.0 mm
09:00 9.6 °C 9.0 °C 1021.9 hPa NE 5.0 km/h 10.5 km/h 95% 0.0 mm
09:09 9.9 °C 9.0 °C 1021.9 hPa NNE 8.7 km/h 10.5 km/h 95% 0.0 mm
09:14 10.0 °C 9.0 °C 1021.9 hPa NNE 6.9 km/h 10.1 km/h 95% 0.0 mm
09:20 10.2 °C 10.0 °C 1021.9 hPa North 5.5 km/h 10.1 km/h 95% 0.0 mm
09:29 10.6 °C 10.0 °C 1021.9 hPa NNE 4.3 km/h 10.5 km/h 94% 0.0 mm
09:34 10.8 °C 10.0 °C 1021.9 hPa NNE 4.0 km/h 9.7 km/h 94% 0.0 mm
09:40 11.0 °C 10.0 °C 1021.9 hPa North 6.4 km/h 12.2 km/h 92% 0.0 mm
09:49 11.4 °C 10.0 °C 1021.9 hPa NNW 4.7 km/h 12.2 km/h 91% 0.0 mm
09:54 11.5 °C 10.0 °C 1021.9 hPa Calm   10.5 km/h 90% 0.0 mm
10:00 12.0 °C 11.0 °C 1021.9 hPa NNE 6.9 km/h 10.5 km/h 89% 0.0 mm
10:09 12.5 °C 11.0 °C 1021.9 hPa North 9.3 km/h 11.6 km/h 87% 0.0 mm
10:14 12.7 °C 11.0 °C 1021.9 hPa NNW 4.7 km/h 11.6 km/h 86% 0.0 mm
10:20 13.1 °C 11.0 °C 1021.9 hPa NE 11.9 km/h 11.9 km/h 84% 0.0 mm
10:29 13.5 °C 11.0 °C 1022.9 hPa NNE 9.7 km/h 10.5 km/h 82% 0.0 mm
10:34 13.7 °C 11.0 °C 1022.9 hPa North 4.7 km/h 13.0 km/h 81% 0.0 mm
10:40 14.1 °C 11.0 °C 1021.9 hPa NNE 11.1 km/h 13.0 km/h 80% 0.0 mm
10:49 14.7 °C 12.0 °C 1021.9 hPa NE 2.1 km/h 12.6 km/h 80% 0.0 mm
10:54 15.2 °C 12.0 °C 1021.9 hPa North 5.5 km/h 12.6 km/h 78% 0.0 mm
11:00 15.7 °C 12.0 °C 1021.9 hPa North 8.7 km/h 12.2 km/h 76% 0.0 mm
11:09 16.7 °C 12.0 °C 1021.9 hPa NNW 1.4 km/h 10.5 km/h 74% 0.0 mm
11:14 17.1 °C 12.0 °C 1021.9 hPa NNW 6.1 km/h 13.7 km/h 71% 0.0 mm
11:20 17.5 °C 12.0 °C 1021.9 hPa NNW 12.2 km/h 13.7 km/h 69% 0.0 mm
11:29 17.3 °C 11.0 °C 1021.9 hPa NNE 8.7 km/h 13.0 km/h 67% 0.0 mm
11:34 17.4 °C 11.0 °C 1021.9 hPa North 5.8 km/h 12.2 km/h 66% 0.0 mm
11:40 17.8 °C 12.0 °C 1021.9 hPa NE 5.8 km/h 12.2 km/h 67% 0.0 mm
11:49 18.5 °C 12.0 °C 1021.9 hPa North 10.1 km/h 12.6 km/h 65% 0.0 mm
11:54 18.6 °C 12.0 °C 1021.9 hPa NE 4.7 km/h 14.0 km/h 63% 0.0 mm
12:00 18.8 °C 12.0 °C 1021.9 hPa NNE 10.1 km/h 16.6 km/h 64% 0.0 mm
12:09 19.5 °C 12.0 °C 1020.9 hPa North 9.7 km/h 13.0 km/h 61% 0.0 mm
12:20 19.8 °C 11.0 °C 1020.9 hPa NNE 4.3 km/h 15.4 km/h 58% 0.0 mm
12:29 20.2 °C 12.0 °C 1020.9 hPa North 7.6 km/h 15.4 km/h 58% 0.0 mm
12:34 20.5 °C 12.0 °C 1020.9 hPa NE 4.7 km/h 14.0 km/h 56% 0.0 mm
12:39 20.4 °C 11.0 °C 1020.9 hPa NNE 11.9 km/h 14.0 km/h 55% 0.0 mm
12:49 20.9 °C 12.0 °C 1020.9 hPa North 10.1 km/h 15.8 km/h 55% 0.0 mm
13:00 21.2 °C 12.0 °C 1019.9 hPa NNE 11.9 km/h 16.3 km/h 53% 0.0 mm
13:09 21.4 °C 12.0 °C 1020.9 hPa NNE 7.6 km/h 15.8 km/h 53% 0.0 mm
13:14 21.4 °C 11.0 °C 1020.9 hPa NE 9.0 km/h 15.8 km/h 52% 0.0 mm
13:20 21.4 °C 11.0 °C 1020.9 hPa ENE 10.5 km/h 13.7 km/h 51% 0.0 mm
13:29 21.7 °C 11.0 °C 1020.9 hPa ESE 4.7 km/h 15.8 km/h 51% 0.0 mm
13:34 22.1 °C 12.0 °C 1020.9 hPa NE 6.4 km/h 12.2 km/h 51% 0.0 mm
13:39 22.2 °C 12.0 °C 1020.9 hPa NNE 13.0 km/h 15.8 km/h 50% 0.0 mm
13:49 22.5 °C 12.0 °C 1020.9 hPa NNE 12.6 km/h 13.0 km/h 49% 0.0 mm
13:54 22.9 °C 12.0 °C 1020.9 hPa Calm   13.0 km/h 48% 0.0 mm
13:59 23.1 °C 11.0 °C 1020.9 hPa NE 11.9 km/h 20.1 km/h 47% 0.0 mm
14:09 23.2 °C 11.0 °C 1019.9 hPa North 9.3 km/h 13.0 km/h 46% 0.0 mm
14:14 23.3 °C 12.0 °C 1019.9 hPa NE 5.8 km/h 13.0 km/h 47% 0.0 mm
14:20 23.6 °C 12.0 °C 1019.9 hPa East 5.8 km/h 11.6 km/h 46% 0.0 mm
14:29 22.2 °C 10.0 °C 1019.9 hPa NNW 2.6 km/h 14.8 km/h 46% 0.0 mm
14:34 23.1 °C 11.0 °C 1019.9 hPa Calm   13.7 km/h 46% 0.0 mm
14:39 23.4 °C 11.0 °C 1019.9 hPa ENE 10.1 km/h 13.7 km/h 45% 0.0 mm
14:49 23.8 °C 11.0 °C 1019.9 hPa North 7.6 km/h 12.6 km/h 44% 0.0 mm
14:54 23.7 °C 10.0 °C 1018.8 hPa East 11.9 km/h 16.9 km/h 42% 0.0 mm
15:04 24.0 °C 11.0 °C 1018.8 hPa NE 8.7 km/h 13.7 km/h 43% 0.0 mm
15:09 23.8 °C 10.0 °C 1019.9 hPa ENE 10.1 km/h 13.7 km/h 42% 0.0 mm
15:14 23.9 °C 11.0 °C 1019.9 hPa NE 9.3 km/h 13.7 km/h 43% 0.0 mm
15:19 24.1 °C 11.0 °C 1019.9 hPa NNE 6.4 km/h 12.2 km/h 43% 0.0 mm
15:29 24.4 °C 11.0 °C 1019.9 hPa NNE 11.6 km/h 12.6 km/h 43% 0.0 mm
15:34 24.2 °C 11.0 °C 1019.9 hPa North 6.9 km/h 18.0 km/h 42% 0.0 mm
15:40 24.2 °C 11.0 °C 1018.8 hPa ESE 9.3 km/h 18.0 km/h 42% 0.0 mm
15:49 24.4 °C 10.0 °C 1018.8 hPa ENE 5.8 km/h 14.0 km/h 41% 0.0 mm
15:54 24.3 °C 10.0 °C 1018.8 hPa East 9.7 km/h 14.0 km/h 41% 0.0 mm
15:59 24.4 °C 10.0 °C 1018.8 hPa ESE 12.6 km/h 13.0 km/h 40% 0.0 mm
16:09 24.4 °C 10.0 °C 1018.8 hPa East 8.7 km/h 14.0 km/h 40% 0.0 mm
16:19 24.6 °C 10.0 °C 1018.8 hPa East 12.2 km/h 12.2 km/h 40% 0.0 mm
16:24 24.5 °C 10.0 °C 1018.8 hPa North 9.7 km/h 13.7 km/h 40% 0.0 mm
16:30 24.6 °C 11.0 °C 1018.8 hPa Calm   13.7 km/h 41% 0.0 mm
16:39 24.3 °C 10.0 °C 1018.8 hPa NNE 10.5 km/h 16.6 km/h 39% 0.0 mm
16:44 24.3 °C 10.0 °C 1018.8 hPa East 9.3 km/h 16.6 km/h 39% 0.0 mm
16:49 24.3 °C 9.0 °C 1018.8 hPa Calm   15.4 km/h 37% 0.0 mm
16:54 24.6 °C 10.0 °C 1018.2 hPa NE 12.2 km/h 15.4 km/h 39% 0.0 mm
17:04 24.5 °C 9.0 °C 1018.2 hPa NE 5.5 km/h 13.7 km/h 38% 0.0 mm
17:09 24.5 °C 10.0 °C 1018.2 hPa North 12.2 km/h 12.2 km/h 39% 0.0 mm
17:19 24.2 °C 9.0 °C 1018.2 hPa North 9.3 km/h 13.0 km/h 38% 0.0 mm
17:24 24.3 °C 9.0 °C 1018.2 hPa Calm   13.0 km/h 38% 0.0 mm
17:29 24.5 °C 10.0 °C 1018.2 hPa NE 11.9 km/h 11.9 km/h 39% 0.0 mm
17:39 24.3 °C 9.0 °C 1018.2 hPa NE 9.7 km/h 13.0 km/h 38% 0.0 mm
17:44 24.2 °C 9.0 °C 1018.2 hPa NE 9.3 km/h 13.0 km/h 38% 0.0 mm
17:50 24.0 °C 9.0 °C 1018.2 hPa NNE 9.0 km/h 13.7 km/h 38% 0.0 mm
17:59 23.9 °C 9.0 °C 1018.2 hPa NE 13.7 km/h 13.7 km/h 39% 0.0 mm
18:04 23.6 °C 9.0 °C 1018.2 hPa NE 10.5 km/h 14.3 km/h 38% 0.0 mm
18:09 23.6 °C 9.0 °C 1018.2 hPa NE 7.9 km/h 14.3 km/h 39% 0.0 mm
18:19 23.6 °C 9.0 °C 1018.2 hPa NE 8.7 km/h 13.7 km/h 39% 0.0 mm
18:24 23.8 °C 9.0 °C 1016.8 hPa NW 6.9 km/h 13.7 km/h 40% 0.0 mm
18:29 23.6 °C 9.0 °C 1016.8 hPa ENE 8.7 km/h 15.8 km/h 39% 0.0 mm
18:34 23.2 °C 11.0 °C 1016.8 hPa North 12.2 km/h 15.8 km/h 46% 0.0 mm
18:44 22.3 °C 11.0 °C 1016.8 hPa North 14.3 km/h 24.5 km/h 49% 0.0 mm
18:49 22.0 °C 11.0 °C 1016.8 hPa NNE 12.2 km/h 23.3 km/h 50% 0.0 mm
18:59 21.3 °C 11.0 °C 1016.8 hPa North 16.9 km/h 21.2 km/h 52% 0.0 mm
19:04 20.9 °C 11.0 °C 1016.8 hPa NNW 13.7 km/h 20.9 km/h 53% 0.0 mm
19:09 20.7 °C 11.0 °C 1018.2 hPa NNW 9.0 km/h 20.9 km/h 54% 0.0 mm
Données Historique de Météo Turbie

Mise a jour : 20/05/2018 19:14:13
Généré par Cumulus 1.9.4 (1099)